Regional Weather Roundup
Issued by NWS

Current Version | Previous Version | Text Only | Print | Product List | Glossary On
Versions: 1 2 3 4 5 6 7 8 9 10 11 12 13 14 15 16 17 18 19 20 21 22 23 24 25 26 27
000
ASUS42 KFFC 261303
RWRGA
WEATHER ROUNDUP FOR GEORGIA
NATIONAL WEATHER SERVICE PEACHTREE CITY GA
900 AM EDT THU MAY 26 2016

NOTE: "FAIR" INDICATES FEW OR NO CLOUDS BELOW 12,000 FEET WITH NO
SIGNIFICANT WEATHER AND/OR OBSTRUCTIONS TO VISIBILITY.

* = USE WITH CAUTION. THE STATIONS MARKED WITH AN ASTERISK MAY NOT
REPORT WEATHER SUCH AS PRECIPITATION, FOG, OR THUNDER AND ARE NOT
QUALITY CONTROLLED BY NWS.

THE REMARK "TC" DENOTES TEMPERATURE READING IN DEGREES CELSIUS.

GAZ001>058-261400-
NORTH GEORGIA

CITY           SKY/WX    TMP DP  RH WIND       PRES   REMARKS
ATLANTA        CLOUDY    73  62  68 CALM      30.21S
ATHENS         CLOUDY    70  62  76 CALM      30.21R
CHAMBLEE       CLOUDY    72  61  68 CALM      30.21R
PEACHTREE CITY MOSUNNY   68  65  90 CALM      30.21F
ROME           MOSUNNY   72  63  73 CALM      30.18F
WEST ATLANTA   LGT RAIN  68  63  84 CALM      30.21R
GAINESVILLE    CLOUDY    70  60  70 S3        30.24R
CARTERSVILLE   CLOUDY    68  65  90 NE3       30.20F


CITY           SKY/WX    TMP DP  RH WIND       PRES   REMARKS
DALTON*        MOSUNNY   64  64 100 CALM      30.20R
LAWRENCEVILLE* MOSUNNY   70  63  78 CALM      30.23R
MARIETTA       PTSUNNY   70  64  83 CALM      30.21F
KENNESAW*      PTSUNNY   68  63  83 VRB3      30.20R
CANTON*        CLOUDY    68  59  73 CALM      30.23S
BLAIRSVILLE*     N/A    N/A N/A N/A MISG      30.25S
$$

GAZ059>098-102>109-261400-
CENTRAL GEORGIA

CITY           SKY/WX    TMP DP  RH WIND       PRES   REMARKS
AUGUSTA-BUSH   SUNNY     73  64  73 SW3       30.20S
AUGUSTA-DANIEL SUNNY     75  60  59 SW9       30.22R
COLUMBUS       SUNNY     74  65  73 CALM      30.18S
MACON          SUNNY     72  62  71 S3        30.20R


CITY           SKY/WX    TMP DP  RH WIND       PRES   REMARKS
LAGRANGE*      SUNNY     73  68  83 CALM      30.20S
SYLVANIA*      MOSUNNY   73  68  83 CALM      30.23R
MILLEDGEVILLE* SUNNY     72  63  73 CALM      30.20S
$$

GAZ099>101-110>166-261400-
SOUTH GEORGIA

CITY           SKY/WX    TMP DP  RH WIND       PRES   REMARKS
SAVANNAH       MOSUNNY   76  69  79 SW6       30.23R
VALDOSTA       SUNNY     74  64  71 S8        30.20S
ALMA           SUNNY     73  65  75 SW5       30.22R
ST SIMONS      SUNNY     78  63  59 SE6       30.21R
FT STEWART     MOSUNNY   73  66  78 CALM      30.20S
ALBANY         SUNNY     75  62  64 S7        30.22R
BRUNSWICK      MOSUNNY   73  66  78 NW3       30.22R


CITY           SKY/WX    TMP DP  RH WIND       PRES   REMARKS
BAINBRIDGE*    SUNNY     72  64  78 SE3       30.19S
MOULTRIE*      SUNNY     72  63  73 S6        30.21S
VIDALIA*       SUNNY     72  64  78 SW6       30.21S
WAYCROSS*      SUNNY     73  66  77 SW3       30.22R
DOUGLAS*       SUNNY     75  63  64 S3        30.22S
$$




USA.gov is the U.S. government's official web portal to all federal, state and local government web resources and services.